EN

Hourly Weather Abryushino

Today, 25 November, Wednesday

Time Temperature Precipitation Wind Pressure Humidity
00:00 +2°C° 0 mm 1 mps 754 mmHg 94%
01:00 +2°C° 0 mm 1 mps 754 mmHg 94%
02:00 +3°C° 0 mm 1 mps 754 mmHg 95%
03:00 +2°C° 0.1 mm 0 mps 754 mmHg 95%
04:00 +2°C° 0.1 mm 0 mps 754 mmHg 94%
05:00 +2°C° 0.1 mm 0 mps 754 mmHg 94%
06:00 +2°C° 0 mm 0 mps 754 mmHg 94%
07:00 +2°C° 0 mm 0 mps 755 mmHg 94%
08:00 +3°C° 0 mm 1 mps 755 mmHg 94%
09:00 +2°C° 0 mm 0 mps 756 mmHg 93%
10:00 +2°C° 0 mm 0 mps 756 mmHg 91%
11:00 +3°C° 0 mm 0 mps 756 mmHg 90%
12:00 +3°C° 0 mm 0 mps 756 mmHg 90%
13:00 +3°C° 0 mm 0 mps 757 mmHg 91%
14:00 +3°C° 0 mm 0 mps 757 mmHg 91%
15:00 +4°C° 0 mm 1 mps 757 mmHg 93%
16:00 +4°C° 0 mm 1 mps 757 mmHg 94%
17:00 +3°C° 0 mm 2 mps 757 mmHg 96%
18:00 +3°C° 0.3 mm 2 mps 756 mmHg 96%
19:00 +4°C° 0.3 mm 2 mps 756 mmHg 97%
20:00 +4°C° 0.3 mm 2 mps 756 mmHg 97%
21:00 +5°C° 0.6 mm 2 mps 756 mmHg 97%
22:00 +5°C° 0.6 mm 2 mps 756 mmHg 97%
23:00 +5°C° 0.6 mm 3 mps 755 mmHg 97%

Tomorrow, 26 November, Thursday

Time Temperature Precipitation Wind Pressure Humidity
00:00 +5°C° 0.1 mm 3 mps 755 mmHg 96%
01:00 +5°C° 0.1 mm 3 mps 755 mmHg 95%
02:00 +7°C° 0.1 mm 3 mps 755 mmHg 94%
03:00 +7°C° 0 mm 3 mps 755 mmHg 92%
04:00 +7°C° 0 mm 3 mps 754 mmHg 91%
05:00 +6°C° 0 mm 4 mps 754 mmHg 89%
06:00 +6°C° 0 mm 4 mps 754 mmHg 88%
07:00 +5°C° 0 mm 4 mps 754 mmHg 86%
08:00 +5°C° 0 mm 4 mps 753 mmHg 85%
09:00 +5°C° 0 mm 4 mps 753 mmHg 84%
10:00 +5°C° 0 mm 4 mps 753 mmHg 83%
11:00 +5°C° 0 mm 4 mps 752 mmHg 83%
12:00 +5°C° 0 mm 4 mps 752 mmHg 83%
13:00 +5°C° 0 mm 4 mps 752 mmHg 83%
14:00 +5°C° 0 mm 4 mps 752 mmHg 83%
15:00 +5°C° 0.1 mm 4 mps 751 mmHg 84%
16:00 +4°C° 0.1 mm 4 mps 751 mmHg 86%
17:00 +4°C° 0.1 mm 4 mps 751 mmHg 87%
18:00 +4°C° 0.4 mm 4 mps 750 mmHg 87%
19:00 +4°C° 0.4 mm 4 mps 750 mmHg 88%
20:00 +4°C° 0.4 mm 4 mps 750 mmHg 89%
21:00 +4°C° 0.2 mm 4 mps 750 mmHg 90%
22:00 +4°C° 0.2 mm 3 mps 750 mmHg 91%
23:00 +4°C° 0.2 mm 3 mps 750 mmHg 92%

Day after tomorrow, 27 November, Friday

Time Temperature Precipitation Wind Pressure Humidity
00:00 +4°C° 0.1 mm 3 mps 750 mmHg 92%
01:00 +4°C° 0.1 mm 3 mps 750 mmHg 93%
02:00 +4°C° 0.1 mm 2 mps 750 mmHg 94%
03:00 +4°C° 0 mm 2 mps 750 mmHg 94%
04:00 +3°C° 0 mm 2 mps 750 mmHg 94%
05:00 +3°C° 0 mm 2 mps 749 mmHg 95%
06:00 +3°C° 0 mm 2 mps 750 mmHg 92%
07:00 +2°C° 0 mm 3 mps 750 mmHg 89%
08:00 +2°C° 0 mm 3 mps 750 mmHg 86%
09:00 +2°C° 0.2 mm 3 mps 750 mmHg 87%
10:00 +1°C° 0.2 mm 3 mps 751 mmHg 89%
11:00 +1°C° 0.2 mm 3 mps 751 mmHg 90%
12:00 +1°C° 0.1 mm 3 mps 751 mmHg 91%
13:00 +1°C° 0.1 mm 3 mps 752 mmHg 92%
14:00 +1°C° 0.1 mm 3 mps 752 mmHg 93%
15:00 0°C° 0.1 mm 3 mps 752 mmHg 93%
16:00 0°C° 0.1 mm 3 mps 753 mmHg 93%
17:00 0°C° 0.1 mm 3 mps 753 mmHg 94%
18:00 0°C° 0.1 mm 3 mps 754 mmHg 94%
19:00 0°C° 0.1 mm 3 mps 754 mmHg 95%
20:00 +1°C° 0.1 mm 3 mps 755 mmHg 95%
21:00 0°C° 0.1 mm 3 mps 755 mmHg 94%
22:00 0°C° 0.1 mm 3 mps 756 mmHg 93%
23:00 0°C° 0.1 mm 3 mps 756 mmHg 92%

28 November, Saturday

Time Temperature Precipitation Wind Pressure Humidity
00:00 -1°C° 0 mm 2 mps 757 mmHg 92%
01:00 -1°C° 0 mm 2 mps 757 mmHg 92%
02:00 -2°C° 0 mm 2 mps 758 mmHg 92%
03:00 -2°C° 0 mm 2 mps 759 mmHg 91%
04:00 -2°C° 0 mm 2 mps 759 mmHg 91%
05:00 -2°C° 0 mm 2 mps 760 mmHg 91%
06:00 -2°C° 0 mm 2 mps 760 mmHg 92%
07:00 -2°C° 0 mm 2 mps 761 mmHg 93%
08:00 -2°C° 0 mm 2 mps 761 mmHg 94%
09:00 -1°C° 0 mm 2 mps 762 mmHg 92%
10:00 -1°C° 0 mm 2 mps 763 mmHg 89%
11:00 +1°C° 0 mm 2 mps 763 mmHg 87%
12:00 +1°C° 0 mm 2 mps 763 mmHg 85%
13:00 +1°C° 0 mm 2 mps 764 mmHg 83%
14:00 +1°C° 0 mm 2 mps 764 mmHg 82%
15:00 +1°C° 0 mm 2 mps 764 mmHg 82%
16:00 +1°C° 0 mm 2 mps 765 mmHg 82%
17:00 +2°C° 0 mm 1 mps 765 mmHg 83%
18:00 +2°C° 0 mm 1 mps 766 mmHg 82%
19:00 +1°C° 0 mm 2 mps 766 mmHg 81%
20:00 +1°C° 0 mm 2 mps 767 mmHg 80%
21:00 +1°C° 0 mm 2 mps 767 mmHg 80%
22:00 +1°C° 0 mm 2 mps 767 mmHg 80%
23:00 +1°C° 0 mm 2 mps 767 mmHg 80%

29 November, Sunday

Time Temperature Precipitation Wind Pressure Humidity
00:00 +2°C° 0 mm 1 mps 768 mmHg 81%
01:00 +2°C° 0 mm 1 mps 768 mmHg 82%
02:00 +1°C° 0 mm 1 mps 768 mmHg 83%
03:00 +1°C° 0 mm 1 mps 768 mmHg 83%
04:00 +1°C° 0 mm 1 mps 768 mmHg 83%
05:00 +1°C° 0 mm 1 mps 769 mmHg 83%
06:00 +1°C° 0 mm 1 mps 769 mmHg 83%
07:00 +1°C° 0 mm 1 mps 769 mmHg 83%
08:00 +1°C° 0 mm 1 mps 769 mmHg 83%
09:00 +1°C° 0 mm 1 mps 770 mmHg 82%
10:00 +2°C° 0 mm 1 mps 770 mmHg 80%
11:00 +1°C° 0 mm 2 mps 770 mmHg 79%
12:00 +2°C° 0 mm 1 mps 770 mmHg 79%
13:00 +2°C° 0 mm 1 mps 770 mmHg 78%
14:00 +2°C° 0 mm 1 mps 770 mmHg 78%
15:00 +1°C° 0 mm 1 mps 770 mmHg 83%
16:00 0°C° 0 mm 1 mps 770 mmHg 87%
17:00 -2°C° 0 mm 2 mps 770 mmHg 91%
18:00 -3°C° 0 mm 2 mps 770 mmHg 92%
19:00 -3°C° 0 mm 2 mps 770 mmHg 93%
20:00 -3°C° 0 mm 2 mps 770 mmHg 93%
21:00 -3°C° 0 mm 2 mps 770 mmHg 93%
22:00 -3°C° 0 mm 2 mps 770 mmHg 92%
23:00 -3°C° 0 mm 2 mps 770 mmHg 92%

30 November, Monday

Time Temperature Precipitation Wind Pressure Humidity
00:00 -3°C° 0 mm 2 mps 770 mmHg 89%
01:00 -3°C° 0 mm 2 mps 770 mmHg 86%
02:00 -2°C° 0 mm 2 mps 770 mmHg 83%
03:00 -2°C° 0 mm 2 mps 770 mmHg 81%
04:00 -2°C° 0 mm 3 mps 770 mmHg 78%
05:00 -2°C° 0 mm 3 mps 769 mmHg 76%
06:00 -2°C° 0 mm 3 mps 770 mmHg 76%
07:00 -2°C° 0 mm 3 mps 770 mmHg 76%
08:00 -2°C° 0 mm 3 mps 770 mmHg 77%
09:00 -2°C° 0 mm 3 mps 770 mmHg 76%
10:00 -2°C° 0 mm 3 mps 770 mmHg 76%
11:00 -2°C° 0 mm 3 mps 770 mmHg 76%
12:00 -2°C° 0 mm 3 mps 769 mmHg 77%
13:00 -2°C° 0 mm 3 mps 769 mmHg 78%
14:00 -2°C° 0 mm 3 mps 769 mmHg 79%
15:00 -2°C° 0 mm 3 mps 769 mmHg 80%
16:00 -2°C° 0 mm 3 mps 769 mmHg 82%
17:00 -4°C° 0 mm 3 mps 769 mmHg 84%
18:00 -3°C° 0 mm 2 mps 769 mmHg 84%
19:00 -2°C° 0 mm 2 mps 769 mmHg 85%
20:00 -2°C° 0 mm 2 mps 769 mmHg 85%
21:00 -2°C° 0 mm 2 mps 770 mmHg 87%
22:00 -2°C° 0 mm 2 mps 770 mmHg 88%
23:00 -2°C° 0 mm 2 mps 770 mmHg 90%
Show more